CW2285 Weather Reports


Display with metric or nautical units.
time (UTC)temp
F
wind
direction
speed
MPH
gust
MPH
rain 1hr
in
rain 24hr
in
rain mn
in
humidity
%
barometer
mb
20260509152504 85 296 9.0 17.0 0.00 0.00 0.00 27 1006.8
20260509152003 85 274 6.0 14.0 0.00 0.00 0.00 28 1006.6
20260509151003 84 284 9.0 15.0 0.00 0.00 0.00 30 1006.6
20260509150503 84 300 9.0 17.0 0.00 0.00 0.00 30 1006.6
20260509150004 83 285 10.0 16.0 0.00 0.00 0.00 31 1006.6
20260509145003 82 287 10.0 18.0 0.00 0.00 0.00 33 1006.5
20260509144503 82 303 10.0 18.0 0.00 0.00 0.00 33 1006.4
20260509144003 82 293 12.0 20.0 0.00 0.00 0.00 34 1006.4
20260509143003 81 275 12.0 20.0 0.00 0.00 0.00 35 1006.4
20260509142503 81 294 13.0 21.0 0.00 0.00 0.00 35 1006.3
20260509142004 80 296 12.0 20.0 0.00 0.00 0.00 36 1006.3
20260509141504 80 281 9.0 20.0 0.00 0.00 0.00 36 1006.3
20260509141003 80 282 11.0 16.0 0.00 0.00 0.00 37 1006.2
20260509140503 80 280 12.0 18.0 0.00 0.00 0.00 37 1006.2
20260509140005 79 291 10.0 20.0 0.00 0.00 0.00 37 1006.1
20260509135504 79 291 10.0 17.0 0.00 0.00 0.00 38 1006.1
20260509135003 79 280 11.0 20.0 0.00 0.00 0.00 38 1006.0
20260509134504 79 291 10.0 18.0 0.00 0.00 0.00 38 1005.9
20260509134004 79 286 13.0 22.0 0.00 0.00 0.00 38 1005.9
20260509133503 79 288 14.0 24.0 0.00 0.00 0.00 39 1005.8
20260509133003 79 282 13.0 21.0 0.00 0.00 0.00 39 1005.8
20260509132504 79 274 15.0 24.0 0.00 0.00 0.00 38 1005.8
20260509132003 78 279 14.0 26.0 0.00 0.00 0.00 39 1005.7
20260509130503 79 286 12.0 22.0 0.00 0.00 0.00 38 1005.6
20260509130004 79 283 14.0 23.0 0.00 0.00 0.00 38 1005.4
20260509125503 79 288 13.0 20.0 0.00 0.00 0.00 38 1005.4
20260509125004 79 279 14.0 24.0 0.00 0.00 0.00 38 1005.4
20260509124504 79 279 14.0 23.0 0.00 0.00 0.00 37 1005.3
20260509124003 79 276 14.0 26.0 0.00 0.00 0.00 37 1005.3
20260509123503 79 299 13.0 23.0 0.00 0.00 0.00 37 1005.3
20260509123004 79 290 15.0 23.0 0.00 0.00 0.00 37 1005.3
20260509122004 79 294 12.0 20.0 0.00 0.00 0.00 36 1005.3
20260509121504 79 294 16.0 24.0 0.00 0.00 0.00 36 1005.2
20260509121004 79 290 16.0 25.0 0.00 0.00 0.00 36 1005.1
20260509120503 79 278 14.0 23.0 0.00 0.00 0.00 36 1005.1
20260509115503 79 287 14.0 29.0 0.00 0.00 0.00 37 1005.1
20260509115005 79 293 13.0 21.0 0.00 0.00 0.00 36 1005.2
20260509114004 79 303 16.0 24.0 0.00 0.00 0.00 36 1005.2
20260509113004 79 274 16.0 25.0 0.00 0.00 0.00 37 1005.2
20260509112503 80 292 14.0 24.0 0.00 0.00 0.00 37 1005.3
20260509112003 80 289 17.0 25.0 0.00 0.00 0.00 36 1005.2
20260509111503 80 281 18.0 29.0 0.00 0.00 0.00 36 1005.2
20260509111004 80 289 17.0 29.0 0.00 0.00 0.00 37 1005.3
20260509110503 80 289 14.0 26.0 0.00 0.00 0.00 36 1005.3
20260509110004 80 284 15.0 26.0 0.00 0.00 0.00 37 1005.2
20260509105503 80 303 17.0 26.0 0.00 0.00 0.00 38 1005.2
20260509105003 79 282 14.0 25.0 0.00 0.00 0.00 38 1005.3
20260509104504 79 297 14.0 26.0 0.00 0.00 0.00 38 1005.3
20260509104003 79 291 16.0 26.0 0.00 0.00 0.00 39 1005.3
20260509103503 79 288 16.0 24.0 0.00 0.00 0.00 39 1005.3
20260509103003 79 297 17.0 25.0 0.00 0.00 0.00 39 1005.3
20260509102004 80 289 13.0 26.0 0.00 0.00 0.00 39 1005.3
20260509101504 80 296 14.0 26.0 0.00 0.00 0.00 38 1005.3
20260509101003 80 283 14.0 26.0 0.00 0.00 0.00 38 1005.3
20260509100503 80 296 13.0 25.0 0.00 0.00 0.00 38 1005.3
20260509100004 80 292 16.0 26.0 0.00 0.00 0.00 38 1005.3
20260509095504 80 279 16.0 25.0 0.00 0.00 0.00 38 1005.2
20260509095004 80 289 16.0 25.0 0.00 0.00 0.00 38 1005.3
20260509094504 80 293 16.0 28.0 0.00 0.00 0.00 38 1005.3
20260509093503 80 271 15.0 29.0 0.00 0.00 0.00 38 1005.5
20260509093003 81 306 17.0 30.0 0.00 0.00 0.00 38 1005.4
20260509092503 80 295 14.0 26.0 0.00 0.00 0.00 38 1005.3
20260509092003 80 288 16.0 29.0 0.00 0.00 0.00 38 1005.4
20260509091503 80 296 15.0 25.0 0.00 0.00 0.00 38 1005.4
20260509091003 80 294 11.0 24.0 0.00 0.00 0.00 38 1005.4
20260509090503 80 286 12.0 24.0 0.00 0.00 0.00 38 1005.5
20260509085003 79 296 14.0 26.0 0.00 0.00 0.00 41 1005.5
20260509084504 80 294 12.0 24.0 0.00 0.00 0.00 41 1005.7
20260509084003 80 300 13.0 23.0 0.00 0.00 0.00 42 1005.7
20260509083504 80 291 12.0 22.0 0.00 0.00 0.00 42 1005.8
20260509082503 80 291 15.0 24.0 0.00 0.00 0.00 42 1005.8
20260509082004 80 295 12.0 23.0 0.00 0.00 0.00 42 1005.8
20260509081503 80 282 12.0 24.0 0.00 0.00 0.00 42 1005.8
20260509081004 80 292 13.0 25.0 0.00 0.00 0.00 41 1005.8
20260509080504 80 290 10.0 20.0 0.00 0.00 0.00 42 1005.9
20260509080005 80 292 13.0 22.0 0.00 0.00 0.00 41 1005.9
20260509075503 80 298 10.0 23.0 0.00 0.00 0.00 41 1005.9
20260509075004 80 293 10.0 20.0 0.00 0.00 0.00 41 1005.9
20260509074503 80 290 12.0 21.0 0.00 0.00 0.00 41 1006.0
20260509073504 80 286 12.0 22.0 0.00 0.00 0.00 41 1005.9
20260509073003 80 284 13.0 22.0 0.00 0.00 0.00 42 1005.9
20260509072504 80 291 12.0 25.0 0.00 0.00 0.00 41 1005.9
20260509072003 80 298 11.0 26.0 0.00 0.00 0.00 41 1005.8
20260509071503 80 297 12.0 24.0 0.00 0.00 0.00 42 1005.8
20260509071004 80 300 12.0 21.0 0.00 0.00 0.00 41 1005.8
20260509070503 81 299 14.0 24.0 0.00 0.00 0.00 40 1005.8
20260509070004 81 295 13.0 26.0 0.00 0.00 0.00 39 1005.9
20260509065503 81 293 11.0 21.0 0.00 0.00 0.00 40 1005.9
20260509064503 81 301 12.0 23.0 0.00 0.00 0.00 39 1005.9
20260509064004 82 301 12.0 22.0 0.00 0.00 0.00 38 1005.9
20260509063504 82 297 12.0 20.0 0.00 0.00 0.00 38 1005.8
20260509063003 82 285 12.0 24.0 0.00 0.00 0.00 37 1005.9
20260509062503 82 293 12.0 23.0 0.00 0.00 0.00 38 1005.9
20260509062004 82 304 8.0 16.0 0.00 0.00 0.00 37 1005.9
20260509061504 82 304 9.0 18.0 0.00 0.00 0.00 37 1005.9
20260509061004 82 301 9.0 22.0 0.00 0.00 0.00 37 1005.9
20260509060504 83 300 12.0 21.0 0.00 0.00 0.00 37 1005.9
20260509060004 83 291 9.0 20.0 0.00 0.00 0.00 37 1005.9
20260509055504 83 297 11.0 21.0 0.00 0.00 0.00 37 1005.9
20260509055004 83 307 13.0 21.0 0.00 0.00 0.00 37 1005.9
20260509054503 83 297 11.0 20.0 0.00 0.00 0.00 37 1005.9
20260509054003 83 298 12.0 21.0 0.00 0.00 0.00 37 1005.8
20260509053503 83 297 10.0 17.0 0.00 0.00 0.00 37 1005.8
20260509053003 83 299 12.0 22.0 0.00 0.00 0.00 37 1005.8
20260509052503 83 298 11.0 23.0 0.00 0.00 0.00 37 1005.8
20260509052004 83 302 12.0 20.0 0.00 0.00 0.00 37 1005.8
20260509051504 83 300 9.0 20.0 0.00 0.00 0.00 37 1005.8
20260509051004 83 299 10.0 20.0 0.00 0.00 0.00 37 1005.8
20260509050502 83 304 9.0 18.0 0.00 0.00 0.00 37 1005.8
20260509050002 84 306 8.0 15.0 0.00 0.00 0.00 36 1005.8
20260509045503 84 316 10.0 20.0 0.00 0.00 0.00 35 1005.8
20260509045003 84 306 9.0 18.0 0.00 0.00 0.00 36 1005.8
20260509044502 84 290 7.0 17.0 0.00 0.00 0.00 36 1005.8
20260509044002 84 312 9.0 17.0 0.00 0.00 0.00 35 1005.7
20260509043503 85 315 7.0 17.0 0.00 0.00 0.00 34 1005.7
20260509043002 85 306 6.0 15.0 0.00 0.00 0.00 35 1005.5
20260509042502 86 301 7.0 17.0 0.00 0.00 0.00 33 1005.5
20260509042002 86 294 10.0 20.0 0.00 0.00 0.00 31 1005.4
20260509041503 86 305 9.0 17.0 0.00 0.00 0.00 30 1005.3
20260509041002 87 309 5.0 15.0 0.00 0.00 0.00 31 1005.3
20260509040502 87 302 8.0 15.0 0.00 0.00 0.00 31 1005.3
20260509035503 87 300 7.0 16.0 0.00 0.00 0.00 31 1005.2
20260509035003 87 299 7.0 15.0 0.00 0.00 0.00 30 1005.0
20260509034502 87 284 13.0 20.0 0.00 0.00 0.00 30 1004.8
20260509034002 87 310 11.0 21.0 0.00 0.00 0.00 31 1004.8
20260509033502 88 298 11.0 24.0 0.00 0.00 0.00 31 1004.8
20260509033002 88 298 13.0 21.0 0.00 0.00 0.00 31 1004.8
20260509032502 88 298 13.0 23.0 0.00 0.00 0.00 31 1004.8
20260509032002 88 305 14.0 22.0 0.00 0.00 0.00 31 1004.7
20260509031502 88 287 12.0 22.0 0.00 0.00 0.00 30 1004.7
20260509031003 88 288 14.0 21.0 0.00 0.00 0.00 31 1004.7
20260509030503 89 297 11.0 20.0 0.00 0.00 0.00 30 1004.7
20260509030003 89 307 11.0 24.0 0.00 0.00 0.00 29 1004.6
20260509025502 90 296 13.0 23.0 0.00 0.00 0.00 28 1004.4
20260509025002 90 292 13.0 25.0 0.00 0.00 0.00 28 1004.5
20260509024503 90 293 11.0 20.0 0.00 0.00 0.00 27 1004.5
20260509024003 91 295 11.0 20.0 0.00 0.00 0.00 27 1004.4
20260509023503 91 291 8.0 21.0 0.00 0.00 0.00 27 1004.5
20260509023002 92 295 13.0 23.0 0.00 0.00 0.00 26 1004.6
20260509022003 93 291 9.0 22.0 0.00 0.00 0.00 25 1004.2
20260509021502 93 286 12.0 20.0 0.00 0.00 0.00 24 1004.2
20260509021002 94 293 11.0 17.0 0.00 0.00 0.00 22 1004.2
20260509020503 94 300 7.0 20.0 0.00 0.00 0.00 22 1004.2
20260509020003 94 297 10.0 18.0 0.00 0.00 0.00 22 1004.2
20260509015503 95 289 10.0 16.0 0.00 0.00 0.00 23 1004.2
20260509015003 95 290 10.0 20.0 0.00 0.00 0.00 23 1004.2
20260509014502 95 309 11.0 21.0 0.00 0.00 0.00 23 1004.2
20260509014003 96 293 10.0 22.0 0.00 0.00 0.00 22 1004.2
20260509013502 96 278 10.0 18.0 0.00 0.00 0.00 22 1004.2
20260509013002 96 301 12.0 21.0 0.00 0.00 0.00 22 1004.2
20260509012502 97 303 9.0 21.0 0.00 0.00 0.00 21 1004.2
20260509012003 97 287 9.0 15.0 0.00 0.00 0.00 20 1004.2
20260509011002 98 291 9.0 20.0 0.00 0.00 0.00 20 1004.2
20260509010503 98 299 9.0 15.0 0.00 0.00 0.00 20 1004.2
20260509010002 98 295 11.0 21.0 0.00 0.00 0.00 19 1004.2
20260509005503 99 279 10.0 16.0 0.00 0.00 0.00 18 1004.2
20260509004003 99 302 8.0 17.0 0.00 0.00 0.00 17 1004.2
20260509003502 99 289 9.0 20.0 0.00 0.00 0.00 17 1004.2
20260509003002 99 282 12.0 21.0 0.00 0.00 0.00 17 1004.2
20260509002502 100 280 9.0 20.0 0.00 0.00 0.00 16 1004.2
20260509002002 100 290 9.0 17.0 0.00 0.00 0.00 16 1004.3
20260509001502 100 292 12.0 24.0 0.00 0.00 0.00 16 1004.4
20260509001003 100 290 14.0 21.0 0.00 0.00 0.00 16 1004.4
20260508235502 101 298 9.0 18.0 0.00 0.00 0.00 15 1004.5
20260508235002 101 298 8.0 16.0 0.00 0.00 0.00 15 1004.5
20260508234502 101 290 10.0 21.0 0.00 0.00 0.00 15 1004.5
20260508233502 101 285 10.0 16.0 0.00 0.00 0.00 14 1004.7
20260508232502 102 277 8.0 20.0 0.00 0.00 0.00 15 1004.7
20260508232003 102 295 10.0 18.0 0.00 0.00 0.00 14 1004.8
20260508231503 102 303 8.0 17.0 0.00 0.00 0.00 14 1004.8
20260508231003 102 276 10.0 20.0 0.00 0.00 0.00 14 1004.8
20260508230502 102 286 10.0 20.0 0.00 0.00 0.00 14 1004.8
20260508230003 102 281 9.0 16.0 0.00 0.00 0.00 14 1004.9
20260508225002 102 261 9.0 23.0 0.00 0.00 0.00 14 1005.1
20260508224503 102 274 9.0 18.0 0.00 0.00 0.00 13 1005.1
20260508223503 103 274 6.0 13.0 0.00 0.00 0.00 12 1005.3
20260508222502 103 288 6.0 12.0 0.00 0.00 0.00 12 1005.5
20260508221503 101 260 6.0 13.0 0.00 0.00 0.00 13 1005.7
20260508221002 102 243 9.0 14.0 0.00 0.00 0.00 13 1005.8
20260508220503 102 302 7.0 15.0 0.00 0.00 0.00 15 1005.8
20260508220003 101 285 5.0 10.0 0.00 0.00 0.00 13 1005.8
20260508215503 102 280 7.0 14.0 0.00 0.00 0.00 13 1005.9
20260508215002 102 297 7.0 17.0 0.00 0.00 0.00 14 1005.9
20260508213502 102 275 6.0 13.0 0.00 0.00 0.00 14 1006.3
20260508213002 102 285 6.0 12.0 0.00 0.00 0.00 15 1006.3
20260508212503 102 285 7.0 12.0 0.00 0.00 0.00 14 1006.3
20260508212002 102 283 7.0 12.0 0.00 0.00 0.00 14 1006.3
20260508211502 102 260 6.0 13.0 0.00 0.00 0.00 14 1006.3
20260508211003 102 308 7.0 13.0 0.00 0.00 0.00 15 1006.4
20260508210502 102 275 6.0 13.0 0.00 0.00 0.00 15 1006.5
20260508210002 101 296 10.0 16.0 0.00 0.00 0.00 14 1006.5
20260508205503 101 299 7.0 12.0 0.00 0.00 0.00 14 1006.6
20260508205002 101 263 6.0 10.0 0.00 0.00 0.00 14 1006.8
20260508204502 100 251 4.0 9.0 0.00 0.00 0.00 14 1006.8
20260508204002 101 342 4.0 8.0 0.00 0.00 0.00 14 1006.8
20260508203002 101 261 6.0 15.0 0.00 0.00 0.00 15 1006.9
20260508202503 101 317 4.0 10.0 0.00 0.00 0.00 15 1006.9
20260508202002 101 274 8.0 14.0 0.00 0.00 0.00 15 1006.9
20260508201502 101 303 6.0 14.0 0.00 0.00 0.00 14 1006.9
20260508201002 101 269 6.0 14.0 0.00 0.00 0.00 14 1007.0
20260508200503 101 290 7.0 13.0 0.00 0.00 0.00 15 1007.1
20260508200002 100 282 5.0 9.0 0.00 0.00 0.00 15 1007.2
20260508195502 100 285 7.0 12.0 0.00 0.00 0.00 15 1007.3
20260508195002 100 283 6.0 13.0 0.00 0.00 0.00 14 1007.3
20260508194502 101 301 6.0 12.0 0.00 0.00 0.00 16 1007.4
20260508194002 100 273 5.0 10.0 0.00 0.00 0.00 15 1007.4
20260508193502 100 252 6.0 9.0 0.00 0.00 0.00 14 1007.4
20260508193002 100 274 6.0 12.0 0.00 0.00 0.00 16 1007.4
20260508192503 99 298 3.0 7.0 0.00 0.00 0.00 14 1007.4
20260508191502 99 185 3.0 7.0 0.00 0.00 0.00 16 1007.5
20260508191002 98 262 2.0 6.0 0.00 0.00 0.00 18 1007.5
20260508190503 98 220 1.0 8.0 0.00 0.00 0.00 17 1007.6
20260508190002 98 197 3.0 6.0 0.00 0.00 0.00 17 1007.7
20260508185502 97 239 1.0 7.0 0.00 0.00 0.00 16 1007.8
20260508185003 98 207 6.0 8.0 0.00 0.00 0.00 16 1007.9
20260508184502 97 247 3.0 6.0 0.00 0.00 0.00 17 1007.9
20260508184003 97 186 5.0 8.0 0.00 0.00 0.00 19 1007.9
20260508183502 97 285 3.0 7.0 0.00 0.00 0.00 18 1008.0
20260508183003 96 249 3.0 6.0 0.00 0.00 0.00 19 1008.1
20260508182502 96 285 1.0 6.0 0.00 0.00 0.00 20 1008.1
20260508182003 95 308 2.0 5.0 0.00 0.00 0.00 21 1008.1
20260508181502 95 221 1.0 6.0 0.00 0.00 0.00 18 1008.2
20260508181003 95 240 2.0 5.0 0.00 0.00 0.00 20 1008.1
20260508180502 94 319 1.0 5.0 0.00 0.00 0.00 19 1008.2
20260508180003 94 278 3.0 6.0 0.00 0.00 0.00 21 1008.2
20260508174502 94 228 3.0 7.0 0.00 0.00 0.00 21 1008.3
20260508174002 93 225 2.0 6.0 0.00 0.00 0.00 22 1008.3
20260508173502 92 215 2.0 5.0 0.00 0.00 0.00 22 1008.3
20260508173003 92 269 5.0 9.0 0.00 0.00 0.00 22 1008.3
20260508172502 92 258 3.0 7.0 0.00 0.00 0.00 23 1008.2
20260508172002 91 215 5.0 7.0 0.00 0.00 0.00 24 1008.3
20260508171502 91 198 6.0 8.0 0.00 0.00 0.00 25 1008.3
20260508170502 91 216 6.0 8.0 0.00 0.00 0.00 26 1008.3
20260508165502 91 267 6.0 10.0 0.00 0.00 0.00 26 1008.3
20260508165002 91 233 6.0 10.0 0.00 0.00 0.00 26 1008.3
20260508164502 90 302 7.0 14.0 0.00 0.00 0.00 26 1008.4
20260508164002 90 301 7.0 16.0 0.00 0.00 0.00 28 1008.4
20260508163002 90 288 8.0 13.0 0.00 0.00 0.00 27 1008.4
20260508161503 88 283 9.0 16.0 0.00 0.00 0.00 29 1008.4
20260508161003 87 293 12.0 21.0 0.00 0.00 0.00 29 1008.4
20260508160502 87 285 7.0 16.0 0.00 0.00 0.00 30 1008.4
20260508155502 86 283 9.0 17.0 0.00 0.00 0.00 31 1008.3
20260508155002 86 290 9.0 20.0 0.00 0.00 0.00 31 1008.4
20260508154503 86 290 10.0 16.0 0.00 0.00 0.00 31 1008.4
20260508154002 85 304 9.0 15.0 0.00 0.00 0.00 32 1008.4
20260508153503 85 298 8.0 17.0 0.00 0.00 0.00 32 1008.4